JAL2087 RJOO-ROAH

Flight info

Callsign JAL2087
Flight time 1h 56m
Altitude 40000
Route TIGER MAIKO Y75 ONC Y525 IHEYA
Aircraft A359/H-SDE2E3GHIJ3J4J5LM1ORWXY/LB1D1

Departure

Time 2026-04-24 12:03
Airport Osaka Itami International Airport (RJOO)

Arrival

Time 2026-04-24 13:59
Airport Naha International Airport (ROAH)
Time Latitude Longitude Altitude Speed Heading
2026-04-24 11:47 34.79019 135.44026 56 ft 0 kts 23°
2026-04-24 11:55 34.79010 135.44022 50 ft 4 kts 22°
2026-04-24 11:55 34.78985 135.44009 48 ft 4 kts 22°
2026-04-24 11:56 34.78960 135.43996 50 ft 4 kts 26°
2026-04-24 11:56 34.78937 135.43980 48 ft 4 kts 41°
2026-04-24 11:56 34.78921 135.43960 48 ft 4 kts 59°
2026-04-24 11:56 34.78914 135.43932 48 ft 4 kts 103°
2026-04-24 11:57 34.78926 135.43905 48 ft 3 kts 135°
2026-04-24 11:57 34.78944 135.43882 48 ft 4 kts 135°
2026-04-24 11:57 34.78963 135.43859 48 ft 4 kts 135°
2026-04-24 11:57 34.78971 135.43850 48 ft 0 kts 135°
2026-04-24 11:59 34.78960 135.43857 48 ft 9 kts 151°
2026-04-24 11:59 34.78870 135.43895 49 ft 16 kts 163°
2026-04-24 11:59 34.78769 135.43969 50 ft 20 kts 134°
2026-04-24 11:59 34.78648 135.44116 50 ft 26 kts 135°
2026-04-24 12:00 34.78515 135.44278 50 ft 28 kts 135°
2026-04-24 12:00 34.78341 135.44334 53 ft 27 kts 180°
2026-04-24 12:00 34.78163 135.44358 50 ft 24 kts 150°
2026-04-24 12:00 34.78038 135.44503 50 ft 26 kts 135°
2026-04-24 12:01 34.77906 135.44662 49 ft 28 kts 135°
2026-04-24 12:01 34.77763 135.44835 50 ft 30 kts 135°
2026-04-24 12:01 34.77591 135.44969 49 ft 29 kts 155°
2026-04-24 12:01 34.77456 135.44996 53 ft 16 kts 215°
2026-04-24 12:02 34.77468 135.44886 52 ft 14 kts 313°
2026-04-24 12:02 34.77563 135.44767 50 ft 42 kts 315°
2026-04-24 12:02 34.77957 135.44292 49 ft 114 kts 315°
2026-04-24 12:02 34.78646 135.43432 258 ft 155 kts 317°
2026-04-24 12:03 34.79373 135.42471 1031 ft 155 kts 309°
2026-04-24 12:03 34.79680 135.41190 1675 ft 176 kts 269°
2026-04-24 12:03 34.79082 135.39751 1939 ft 215 kts 224°
2026-04-24 12:03 34.77645 135.38930 2277 ft 245 kts 192°
2026-04-24 12:04 34.76504 135.38652 2593 ft 260 kts 188°
2026-04-24 12:04 34.74683 135.38254 3333 ft 271 kts 187°
2026-04-24 12:04 34.72240 135.37669 4649 ft 270 kts 187°
2026-04-24 12:04 34.70385 135.37176 5527 ft 275 kts 192°
2026-04-24 12:05 34.68641 135.36234 6537 ft 277 kts 214°
2026-04-24 12:05 34.67700 135.35132 7119 ft 282 kts 232°
2026-04-24 12:05 34.66858 135.33013 8029 ft 285 kts 251°
2026-04-24 12:05 34.66347 135.30659 8950 ft 291 kts 257°
2026-04-24 12:06 34.65889 135.28252 9915 ft 294 kts 257°
2026-04-24 12:06 34.65444 135.25792 10633 ft 307 kts 258°
2026-04-24 12:06 34.64989 135.23159 11008 ft 330 kts 259°
2026-04-24 12:06 34.64512 135.20325 11349 ft 354 kts 259°
2026-04-24 12:07 34.64017 135.17339 11995 ft 364 kts 260°
2026-04-24 12:07 34.63515 135.14298 12800 ft 369 kts 260°
2026-04-24 12:07 34.63012 135.11243 13827 ft 369 kts 260°
2026-04-24 12:07 34.62509 135.08204 14841 ft 363 kts 259°
2026-04-24 12:08 34.62015 135.05205 15813 ft 362 kts 259°
2026-04-24 12:08 34.61519 135.02222 16764 ft 360 kts 259°
2026-04-24 12:08 34.60804 134.99302 17650 ft 362 kts 249°
2026-04-24 12:08 34.59724 134.96523 18482 ft 365 kts 244°
2026-04-24 12:09 34.58483 134.93831 19220 ft 367 kts 241°
2026-04-24 12:09 34.57161 134.91169 19912 ft 370 kts 239°
2026-04-24 12:09 34.55670 134.88643 20537 ft 376 kts 230°
2026-04-24 12:09 34.53867 134.86323 21242 ft 379 kts 226°
2026-04-24 12:10 34.51952 134.84107 21994 ft 382 kts 224°
2026-04-24 12:10 34.49965 134.81944 22722 ft 385 kts 222°
2026-04-24 12:10 34.47934 134.79802 23450 ft 388 kts 221°
2026-04-24 12:11 34.43819 134.75508 24632 ft 394 kts 224°
2026-04-24 12:11 34.41746 134.73336 25308 ft 393 kts 224°
2026-04-24 12:11 34.39693 134.71177 26183 ft 387 kts 225°
2026-04-24 12:11 34.37679 134.69054 27096 ft 382 kts 226°
2026-04-24 12:12 34.35686 134.66949 27906 ft 378 kts 226°
2026-04-24 12:12 34.33070 134.64181 28898 ft 375 kts 227°
2026-04-24 12:12 34.31773 134.62809 29347 ft 375 kts 227°
2026-04-24 12:12 34.29808 134.60729 30063 ft 374 kts 228°
2026-04-24 12:13 34.27855 134.58665 30675 ft 372 kts 228°
2026-04-24 12:13 34.25899 134.56597 31055 ft 376 kts 227°
2026-04-24 12:13 34.23916 134.54499 31392 ft 380 kts 227°
2026-04-24 12:13 34.21922 134.52393 31754 ft 382 kts 227°
2026-04-24 12:14 34.19910 134.50272 32045 ft 385 kts 227°
2026-04-24 12:14 34.17881 134.48135 32414 ft 387 kts 227°
2026-04-24 12:14 34.15847 134.45999 32816 ft 389 kts 227°
2026-04-24 12:14 34.13804 134.43855 33248 ft 389 kts 227°
2026-04-24 12:15 34.11768 134.41721 33877 ft 385 kts 227°
2026-04-24 12:15 34.09746 134.39604 34303 ft 384 kts 227°
2026-04-24 12:15 34.07756 134.37519 34607 ft 384 kts 227°
2026-04-24 12:15 34.05744 134.35409 35010 ft 382 kts 227°
2026-04-24 12:16 34.03734 134.33302 35385 ft 382 kts 227°
2026-04-24 12:16 34.01728 134.31200 35757 ft 382 kts 227°
2026-04-24 12:16 33.99723 134.29101 36118 ft 381 kts 227°
2026-04-24 12:16 33.97720 134.27003 36426 ft 382 kts 227°
2026-04-24 12:17 33.95716 134.24904 36808 ft 381 kts 227°
2026-04-24 12:17 33.93719 134.22805 37219 ft 381 kts 227°
2026-04-24 12:17 33.91706 134.20709 37408 ft 384 kts 227°
2026-04-24 12:17 33.89676 134.18597 37657 ft 386 kts 227°
2026-04-24 12:18 33.87651 134.16489 38026 ft 385 kts 227°
2026-04-24 12:18 33.85630 134.14385 38372 ft 384 kts 227°
2026-04-24 12:18 33.83637 134.12314 38662 ft 384 kts 227°
2026-04-24 12:18 33.81615 134.10221 38910 ft 382 kts 228°
2026-04-24 12:19 33.79601 134.08133 39199 ft 381 kts 227°
2026-04-24 12:19 33.77593 134.06051 39355 ft 382 kts 228°
2026-04-24 12:19 33.75589 134.03960 39511 ft 382 kts 228°
2026-04-24 12:19 33.73581 134.01869 39709 ft 383 kts 227°
2026-04-24 12:20 33.71556 133.99765 39729 ft 387 kts 227°
2026-04-24 12:20 33.69514 133.97652 39870 ft 387 kts 227°
2026-04-24 12:20 33.67475 133.95547 40037 ft 386 kts 227°
2026-04-24 12:21 33.63427 133.91370 40047 ft 382 kts 227°
2026-04-24 12:21 33.59824 133.87646 40033 ft 382 kts 227°
2026-04-24 12:22 33.55793 133.83484 40008 ft 382 kts 227°
2026-04-24 12:22 33.51762 133.79328 40020 ft 382 kts 227°
2026-04-24 12:23 33.47751 133.75198 40021 ft 383 kts 227°
2026-04-24 12:23 33.43709 133.71044 40023 ft 383 kts 227°
2026-04-24 12:24 33.39671 133.66901 40037 ft 380 kts 228°
2026-04-24 12:24 33.35659 133.62789 40059 ft 379 kts 228°
2026-04-24 12:25 33.31630 133.58657 40031 ft 383 kts 227°
2026-04-24 12:25 33.27582 133.54519 40036 ft 381 kts 228°
2026-04-24 12:26 33.23562 133.50418 40039 ft 379 kts 228°
2026-04-24 12:26 33.19552 133.46326 40039 ft 379 kts 228°
2026-04-24 12:27 33.15541 133.42237 40046 ft 379 kts 228°
2026-04-24 12:27 33.11553 133.38177 40043 ft 380 kts 228°
2026-04-24 12:28 33.07526 133.34084 40041 ft 380 kts 228°
2026-04-24 12:28 33.03503 133.30001 40042 ft 380 kts 228°
2026-04-24 12:29 32.99488 133.25932 40037 ft 377 kts 228°
2026-04-24 12:29 32.95493 133.21889 40058 ft 377 kts 228°
2026-04-24 12:30 32.91486 133.17833 40044 ft 379 kts 228°
2026-04-24 12:30 32.87490 133.13796 40038 ft 378 kts 228°
2026-04-24 12:31 32.83489 133.09762 40043 ft 376 kts 228°
2026-04-24 12:31 32.79496 133.05738 40042 ft 376 kts 228°
2026-04-24 12:32 32.75507 133.01722 40046 ft 376 kts 228°
2026-04-24 12:32 32.71512 132.97705 40043 ft 376 kts 228°
2026-04-24 12:33 32.67517 132.93694 40039 ft 376 kts 228°
2026-04-24 12:33 32.63511 132.89678 40040 ft 376 kts 228°
2026-04-24 12:34 32.59533 132.85694 40040 ft 376 kts 228°
2026-04-24 12:34 32.55525 132.81685 40040 ft 377 kts 228°
2026-04-24 12:35 32.51521 132.77684 40044 ft 377 kts 228°
2026-04-24 12:35 32.47510 132.73682 39984 ft 376 kts 227°
2026-04-24 12:36 32.43509 132.69695 40042 ft 375 kts 227°
2026-04-24 12:36 32.39522 132.65727 40040 ft 374 kts 228°
2026-04-24 12:37 32.35537 132.61763 40035 ft 374 kts 228°
2026-04-24 12:37 32.31542 132.57796 40036 ft 375 kts 228°
2026-04-24 12:38 32.27567 132.53852 40038 ft 375 kts 228°
2026-04-24 12:38 32.23563 132.49885 40037 ft 375 kts 228°
2026-04-24 12:39 32.15560 132.41970 40043 ft 374 kts 227°
2026-04-24 12:40 32.11561 132.38025 40038 ft 375 kts 228°
2026-04-24 12:40 32.07557 132.34075 40037 ft 375 kts 228°
2026-04-24 12:41 32.03546 132.30124 40022 ft 375 kts 227°
2026-04-24 12:41 31.99541 132.26185 40044 ft 374 kts 227°
2026-04-24 12:42 31.95545 132.22258 40038 ft 374 kts 227°
2026-04-24 12:42 31.91570 132.18357 40054 ft 375 kts 228°
2026-04-24 12:43 31.87560 132.14426 40029 ft 375 kts 227°
2026-04-24 12:43 31.83551 132.10501 40037 ft 375 kts 227°
2026-04-24 12:44 31.79536 132.06574 40038 ft 375 kts 227°
2026-04-24 12:44 31.75553 132.02682 39987 ft 375 kts 227°
2026-04-24 12:45 31.71539 131.98765 40036 ft 375 kts 227°
2026-04-24 12:45 31.67526 131.94856 40037 ft 374 kts 227°
2026-04-24 12:46 31.63519 131.90955 40036 ft 374 kts 227°
2026-04-24 12:46 31.59507 131.87054 40017 ft 374 kts 227°
2026-04-24 12:47 31.55485 131.83147 40037 ft 375 kts 227°
2026-04-24 12:47 31.51489 131.79270 40030 ft 375 kts 227°
2026-04-24 12:48 31.47469 131.75376 40039 ft 374 kts 227°
2026-04-24 12:48 31.43457 131.71493 40025 ft 375 kts 227°
2026-04-24 12:49 31.39431 131.67600 40026 ft 375 kts 227°
2026-04-24 12:49 31.35412 131.63719 40028 ft 375 kts 227°
2026-04-24 12:50 31.31384 131.59834 40043 ft 375 kts 227°
2026-04-24 12:50 31.27351 131.55946 40070 ft 377 kts 228°
2026-04-24 12:51 31.23324 131.52072 40030 ft 376 kts 228°
2026-04-24 12:51 31.19281 131.48188 40030 ft 376 kts 228°
2026-04-24 12:52 31.15235 131.44303 40028 ft 376 kts 227°
2026-04-24 12:52 31.11192 131.40425 40028 ft 376 kts 227°
2026-04-24 12:53 31.07143 131.36546 40028 ft 376 kts 227°
2026-04-24 12:53 31.03126 131.32702 40029 ft 375 kts 227°
2026-04-24 12:54 30.99090 131.28846 40024 ft 375 kts 228°
2026-04-24 12:54 30.95727 131.25633 40026 ft 376 kts 228°
2026-04-24 12:55 30.91674 131.21767 40029 ft 376 kts 228°
2026-04-24 12:55 30.87616 131.17901 40020 ft 376 kts 228°
2026-04-24 12:56 30.83563 131.14044 39995 ft 377 kts 228°
2026-04-24 12:56 30.79486 131.10167 40007 ft 378 kts 228°
2026-04-24 12:57 30.75415 131.06303 39998 ft 378 kts 227°
2026-04-24 12:57 30.71333 131.02432 39995 ft 378 kts 227°
2026-04-24 12:58 30.67281 130.98594 39992 ft 379 kts 228°
2026-04-24 12:58 30.63185 130.94715 39993 ft 380 kts 228°
2026-04-24 12:59 30.59079 130.90834 40012 ft 380 kts 227°
2026-04-24 12:59 30.54986 130.86972 39996 ft 379 kts 227°
2026-04-24 13:00 30.50895 130.83115 39997 ft 380 kts 227°
2026-04-24 13:00 30.46781 130.79235 40020 ft 382 kts 227°
2026-04-24 13:01 30.42653 130.75351 40019 ft 382 kts 227°
2026-04-24 13:01 30.38524 130.71472 40022 ft 382 kts 227°
2026-04-24 13:02 30.34411 130.67609 40019 ft 384 kts 227°
2026-04-24 13:02 30.30252 130.63707 40018 ft 385 kts 227°
2026-04-24 13:03 30.26088 130.59805 40009 ft 384 kts 227°
2026-04-24 13:03 30.21928 130.55897 39996 ft 385 kts 227°
2026-04-24 13:04 30.17731 130.51981 40020 ft 391 kts 227°
2026-04-24 13:04 30.13493 130.48028 40017 ft 392 kts 227°
2026-04-24 13:05 30.09253 130.44083 40014 ft 389 kts 227°
2026-04-24 13:05 30.05046 130.40169 40000 ft 388 kts 227°
2026-04-24 13:06 30.00750 130.36317 40013 ft 396 kts 223°
2026-04-24 13:06 29.96034 130.32992 40015 ft 401 kts 220°
2026-04-24 13:07 29.91185 130.29772 40013 ft 402 kts 220°
2026-04-24 13:07 29.86322 130.26575 40005 ft 403 kts 220°
2026-04-24 13:08 29.81434 130.23349 40015 ft 404 kts 220°
2026-04-24 13:08 29.76571 130.20138 40012 ft 402 kts 220°
2026-04-24 13:09 29.69303 130.15331 40003 ft 402 kts 220°
2026-04-24 13:09 29.64462 130.12132 40012 ft 405 kts 220°
2026-04-24 13:10 29.59565 130.08906 40012 ft 405 kts 220°
2026-04-24 13:10 29.54665 130.05690 40012 ft 405 kts 220°
2026-04-24 13:11 29.49767 130.02471 40032 ft 405 kts 220°
2026-04-24 13:11 29.44890 129.99269 40012 ft 402 kts 220°
2026-04-24 13:12 29.40029 129.96077 40012 ft 402 kts 220°
2026-04-24 13:12 29.35171 129.92891 39980 ft 402 kts 220°
2026-04-24 13:13 29.30322 129.89714 40010 ft 405 kts 220°
2026-04-24 13:13 29.25420 129.86510 40009 ft 406 kts 220°
2026-04-24 13:14 29.20501 129.83303 40012 ft 406 kts 220°
2026-04-24 13:14 29.15592 129.80102 40027 ft 406 kts 220°
2026-04-24 13:15 29.10668 129.76893 40015 ft 407 kts 220°
2026-04-24 13:15 29.05749 129.73693 40015 ft 407 kts 220°
2026-04-24 13:16 29.00829 129.70496 40012 ft 407 kts 220°
2026-04-24 13:16 28.95911 129.67301 40011 ft 408 kts 219°
2026-04-24 13:17 28.90991 129.64107 40012 ft 409 kts 219°
2026-04-24 13:17 28.86032 129.60895 40014 ft 409 kts 219°
2026-04-24 13:18 28.81076 129.57690 40057 ft 409 kts 220°
2026-04-24 13:18 28.76118 129.54484 40018 ft 410 kts 219°
2026-04-24 13:19 28.71154 129.51279 40005 ft 410 kts 219°
2026-04-24 13:19 28.66184 129.48074 40005 ft 410 kts 219°
2026-04-24 13:20 28.61245 129.44892 39941 ft 410 kts 218°
2026-04-24 13:20 28.56276 129.41693 40012 ft 410 kts 218°
2026-04-24 13:21 28.51312 129.38502 40006 ft 410 kts 218°
2026-04-24 13:21 28.46343 129.35311 40018 ft 410 kts 218°
2026-04-24 13:22 28.41377 129.32125 40004 ft 410 kts 218°
2026-04-24 13:22 28.36398 129.28935 40025 ft 410 kts 218°
2026-04-24 13:23 28.31433 129.25757 40025 ft 410 kts 218°
2026-04-24 13:23 28.26464 129.22578 40026 ft 410 kts 218°
2026-04-24 13:24 28.21494 129.19405 40012 ft 411 kts 218°
2026-04-24 13:24 28.16513 129.16226 40017 ft 411 kts 218°
2026-04-24 13:25 28.11522 129.13045 40015 ft 412 kts 218°
2026-04-24 13:25 28.06566 129.09890 40027 ft 411 kts 218°
2026-04-24 13:26 28.01582 129.06722 40020 ft 411 kts 217°
2026-04-24 13:26 27.96588 129.03548 40023 ft 412 kts 217°
2026-04-24 13:27 27.91588 129.00375 40024 ft 412 kts 217°
2026-04-24 13:27 27.86592 128.97208 40023 ft 412 kts 217°
2026-04-24 13:28 27.81586 128.94042 40020 ft 413 kts 217°
2026-04-24 13:28 27.76569 128.90868 39858 ft 412 kts 217°
2026-04-24 13:29 27.74064 128.89285 39622 ft 412 kts 217°
2026-04-24 13:29 27.71600 128.87728 39413 ft 411 kts 217°
2026-04-24 13:29 27.69111 128.86157 39178 ft 409 kts 217°
2026-04-24 13:29 27.66637 128.84597 38949 ft 406 kts 217°
2026-04-24 13:30 27.64178 128.83049 38724 ft 404 kts 217°
2026-04-24 13:30 27.61726 128.81504 38438 ft 402 kts 217°
2026-04-24 13:30 27.59290 128.79970 38168 ft 400 kts 217°
2026-04-24 13:30 27.56865 128.78443 37896 ft 398 kts 217°
2026-04-24 13:31 27.54452 128.76923 37429 ft 397 kts 217°
2026-04-24 13:31 27.52042 128.75406 36796 ft 396 kts 217°
2026-04-24 13:31 27.49637 128.73893 36127 ft 396 kts 217°
2026-04-24 13:31 27.47229 128.72376 35438 ft 397 kts 217°
2026-04-24 13:32 27.44938 128.70687 34747 ft 391 kts 224°
2026-04-24 13:32 27.42971 128.68631 33988 ft 380 kts 233°
2026-04-24 13:32 27.41414 128.66294 33139 ft 367 kts 239°
2026-04-24 13:32 27.40062 128.63909 32384 ft 357 kts 240°
2026-04-24 13:33 27.38802 128.61547 31635 ft 347 kts 241°
2026-04-24 13:33 27.37599 128.59227 30912 ft 340 kts 241°
2026-04-24 13:33 27.36422 128.56936 30151 ft 337 kts 241°
2026-04-24 13:33 27.35252 128.54668 29320 ft 334 kts 241°
2026-04-24 13:34 27.34077 128.52430 28612 ft 330 kts 240°
2026-04-24 13:34 27.32915 128.50212 28084 ft 329 kts 240°
2026-04-24 13:34 27.31755 128.47998 27524 ft 329 kts 240°
2026-04-24 13:34 27.30591 128.45781 27016 ft 329 kts 240°
2026-04-24 13:35 27.29440 128.43597 26468 ft 328 kts 240°
2026-04-24 13:35 27.28276 128.41389 25917 ft 327 kts 240°
2026-04-24 13:35 27.27112 128.39187 25369 ft 326 kts 240°
2026-04-24 13:35 27.25952 128.36994 24827 ft 325 kts 239°
2026-04-24 13:36 27.24797 128.34811 24284 ft 325 kts 239°
2026-04-24 13:36 27.23644 128.32632 23739 ft 324 kts 239°
2026-04-24 13:36 27.22495 128.30463 23145 ft 323 kts 239°
2026-04-24 13:36 27.21344 128.28292 22555 ft 322 kts 239°
2026-04-24 13:37 27.20202 128.26138 22022 ft 320 kts 240°
2026-04-24 13:37 27.19065 128.23996 21474 ft 318 kts 240°
2026-04-24 13:37 27.17935 128.21866 20932 ft 316 kts 240°
2026-04-24 13:37 27.16811 128.19750 20376 ft 315 kts 240°
2026-04-24 13:38 27.15693 128.17643 19829 ft 313 kts 240°
2026-04-24 13:38 27.14579 128.15547 19280 ft 312 kts 240°
2026-04-24 13:38 27.13483 128.13486 18730 ft 311 kts 241°
2026-04-24 13:38 27.12374 128.11400 18137 ft 310 kts 241°
2026-04-24 13:39 27.11273 128.09326 17760 ft 311 kts 241°
2026-04-24 13:39 27.10165 128.07242 17646 ft 310 kts 241°
2026-04-24 13:39 27.09060 128.05168 17486 ft 308 kts 241°
2026-04-24 13:39 27.07960 128.03104 17318 ft 308 kts 241°
2026-04-24 13:40 27.06860 128.01039 17164 ft 310 kts 241°
2026-04-24 13:40 27.05757 127.98971 16964 ft 308 kts 241°
2026-04-24 13:40 27.04661 127.96919 16778 ft 306 kts 241°
2026-04-24 13:40 27.03529 127.94894 16602 ft 307 kts 237°
2026-04-24 13:41 27.02640 127.93662 16475 ft 307 kts 230°
2026-04-24 13:41 27.00371 127.91673 16227 ft 314 kts 213°
2026-04-24 13:41 26.99043 127.91001 16105 ft 318 kts 204°
2026-04-24 13:41 26.96128 127.90402 15862 ft 326 kts 187°
2026-04-24 13:42 26.93850 127.90427 15669 ft 328 kts 183°
2026-04-24 13:42 26.92311 127.90486 15530 ft 328 kts 183°
2026-04-24 13:42 26.90035 127.90574 15345 ft 327 kts 183°
2026-04-24 13:42 26.87761 127.90655 15161 ft 326 kts 183°
2026-04-24 13:43 26.85499 127.90729 14967 ft 325 kts 183°
2026-04-24 13:43 26.83266 127.90800 14768 ft 325 kts 183°
2026-04-24 13:43 26.81005 127.90870 14578 ft 324 kts 183°
2026-04-24 13:43 26.78750 127.90938 14383 ft 324 kts 183°
2026-04-24 13:44 26.76504 127.91006 14189 ft 322 kts 183°
2026-04-24 13:44 26.74267 127.91073 14013 ft 321 kts 183°
2026-04-24 13:44 26.72032 127.91139 13811 ft 321 kts 183°
2026-04-24 13:44 26.69804 127.91205 13618 ft 320 kts 183°
2026-04-24 13:45 26.67572 127.91273 13417 ft 319 kts 183°
2026-04-24 13:45 26.65349 127.91339 13227 ft 318 kts 183°
2026-04-24 13:45 26.63140 127.91405 13045 ft 317 kts 183°
2026-04-24 13:45 26.60936 127.91470 12854 ft 317 kts 184°
2026-04-24 13:46 26.58734 127.91535 12679 ft 316 kts 184°
2026-04-24 13:46 26.56542 127.91601 12474 ft 315 kts 184°
2026-04-24 13:46 26.54357 127.91666 12289 ft 313 kts 184°
2026-04-24 13:46 26.52215 127.91731 12105 ft 311 kts 184°
2026-04-24 13:47 26.50055 127.91794 11935 ft 309 kts 184°
2026-04-24 13:47 26.47903 127.91855 11748 ft 309 kts 184°
2026-04-24 13:47 26.45758 127.91918 11574 ft 308 kts 184°
2026-04-24 13:47 26.43620 127.91983 11395 ft 307 kts 184°
2026-04-24 13:48 26.41486 127.92044 11245 ft 306 kts 184°
2026-04-24 13:48 26.39390 127.91893 11083 ft 294 kts 196°
2026-04-24 13:48 26.37505 127.91225 10903 ft 277 kts 208°
2026-04-24 13:48 26.35789 127.90371 10693 ft 262 kts 210°
2026-04-24 13:49 26.34193 127.89550 10401 ft 245 kts 211°
2026-04-24 13:49 26.32671 127.88763 9937 ft 238 kts 211°
2026-04-24 13:49 26.31196 127.88000 9379 ft 234 kts 211°
2026-04-24 13:49 26.29735 127.87248 8962 ft 229 kts 210°
2026-04-24 13:50 26.28288 127.86504 8630 ft 229 kts 210°
2026-04-24 13:50 26.26847 127.85764 8334 ft 228 kts 210°
2026-04-24 13:50 26.25404 127.85025 8028 ft 228 kts 210°
2026-04-24 13:50 26.23957 127.84297 7725 ft 227 kts 209°
2026-04-24 13:51 26.22515 127.83580 7419 ft 228 kts 209°
2026-04-24 13:51 26.21066 127.82839 7125 ft 229 kts 211°
2026-04-24 13:51 26.19624 127.82101 6828 ft 227 kts 210°
2026-04-24 13:51 26.18195 127.81369 6473 ft 224 kts 210°
2026-04-24 13:52 26.16787 127.80640 6168 ft 223 kts 210°
2026-04-24 13:52 26.15379 127.79919 5851 ft 222 kts 210°
2026-04-24 13:52 26.13982 127.79206 5558 ft 217 kts 209°
2026-04-24 13:52 26.12637 127.78523 5247 ft 210 kts 210°
2026-04-24 13:53 26.11314 127.77848 4958 ft 209 kts 210°
2026-04-24 13:53 26.09991 127.77172 4662 ft 210 kts 209°
2026-04-24 13:53 26.08661 127.76492 4376 ft 211 kts 208°
2026-04-24 13:53 26.07335 127.75806 4101 ft 206 kts 209°
2026-04-24 13:54 26.06205 127.74972 3818 ft 193 kts 225°
2026-04-24 13:54 26.05404 127.73811 3547 ft 188 kts 244°
2026-04-24 13:54 26.05024 127.72430 3327 ft 187 kts 264°
2026-04-24 13:54 26.04929 127.70979 3239 ft 188 kts 270°
2026-04-24 13:55 26.04885 127.69543 3026 ft 185 kts 270°
2026-04-24 13:55 26.04841 127.68123 2738 ft 183 kts 270°
2026-04-24 13:55 26.04802 127.66696 2500 ft 186 kts 271°
2026-04-24 13:55 26.05024 127.65296 2259 ft 182 kts 297°
2026-04-24 13:56 26.05947 127.64387 2138 ft 179 kts 336°
2026-04-24 13:56 26.07107 127.63913 2069 ft 177 kts 342°
2026-04-24 13:56 26.08334 127.63785 1883 ft 178 kts
2026-04-24 13:56 26.09530 127.63823 1632 ft 165 kts 358°
2026-04-24 13:57 26.10636 127.63734 1401 ft 153 kts 355°
2026-04-24 13:57 26.11661 127.63654 1211 ft 143 kts 357°
2026-04-24 13:57 26.12618 127.63602 1024 ft 133 kts 358°
2026-04-24 13:57 26.13514 127.63562 872 ft 126 kts 358°
2026-04-24 13:58 26.14390 127.63498 729 ft 127 kts 356°
2026-04-24 13:58 26.15275 127.63458 595 ft 129 kts 357°
2026-04-24 13:58 26.16169 127.63429 406 ft 129 kts 357°
2026-04-24 13:58 26.17060 127.63385 237 ft 129 kts 358°
2026-04-24 13:59 26.17931 127.63349 59 ft 125 kts 359°
2026-04-24 13:59 26.18730 127.63311 23 ft 96 kts 357°
2026-04-24 13:59 26.19238 127.63290 24 ft 55 kts 358°
2026-04-24 13:59 26.19580 127.63282 27 ft 41 kts
2026-04-24 14:00 26.19820 127.63383 26 ft 35 kts 27°
2026-04-24 14:00 26.20009 127.63444 24 ft 26 kts 358°
2026-04-24 14:00 26.20187 127.63437 25 ft 24 kts 357°
2026-04-24 14:00 26.20299 127.63504 25 ft 17 kts 79°
2026-04-24 14:01 26.20307 127.63639 27 ft 20 kts 87°
2026-04-24 14:01 26.20315 127.63842 26 ft 25 kts 88°
2026-04-24 14:01 26.20322 127.64044 27 ft 27 kts 87°
2026-04-24 14:01 26.20330 127.64257 26 ft 27 kts 87°
2026-04-24 14:02 26.20338 127.64453 24 ft 25 kts 87°
2026-04-24 14:02 26.20345 127.64647 25 ft 26 kts 87°
2026-04-24 14:02 26.20352 127.64820 26 ft 18 kts 87°
2026-04-24 14:02 26.20378 127.64903 27 ft 8 kts 27°
2026-04-24 14:03 26.20428 127.64931 28 ft 8 kts 27°
2026-04-24 14:03 26.20431 127.64933 28 ft 0 kts 27°